Regional Weather Roundup
Issued by NWS Green Bay, WI

Home | Current Version | Previous Version | Graphics & Text | Print | Product List | Glossary Off
Versions: 1 2 3 4 5 6 7 8 9 10 11 12 13 14 15 16 17 18 19 20 21 22 23 24 25 26 27 28 29 30 31 32 33 34 35 36 37 38 39 40 41 42 43 44 45 46 47 48 49 50

000
ASUS43 KGRB 051110
RWRGRB

NORTH-CENTRAL AND NORTHEAST WISCONSIN REGIONAL WEATHER ROUNDUP
NATIONAL WEATHER SERVICE GREEN BAY WI
600 AM CDT TUE MAY 05 2015

WIZ005-009-010>012-018-019-051200-
NORTH CENTRAL WISCONSIN

CITY           SKY/WX    TMP DP  RH WIND       PRES   REMARKS
IRONWOOD       CLEAR     34  30  86 CALM      30.26R
MANITOWISH WTR CLEAR     32  32  99 CALM      30.29R
ARBOR VITAE    CLEAR     37  35  90 CALM      30.28S
EAGLE RIVER    CLEAR     33  33  99 CALM      30.29R
LAND O LAKES   CLEAR     31  31 100 CALM      30.31R
RHINELANDER      N/A     39  36  89 CALM      30.29S
PHILLIPS       CLEAR     42  33  69 E3        30.27R
ANTIGO         MOCLDY    42  33  69 NE6       30.28S
TOMAHAWK       PTCLDY    32  30  94 CALM      30.28S
MERRILL        PTCLDY    40  35  83 NE3       30.27S
$$

WIZ013-073-051200-
NORTHEAST WISCONSIN

CITY           SKY/WX    TMP DP  RH WIND       PRES   REMARKS
IRON MOUNTAIN  PTCLDY    35  33  92 NW3       30.30S
MARINETTE      MOCLDY    43  34  70 N5        30.29R
OCONTO         CLOUDY    40  37  91 CALM      30.29R
$$

WIZ017-030-035>037-045-051200-
CENTRAL WISCONSIN

CITY           SKY/WX    TMP DP  RH WIND       PRES   REMARKS
MEDFORD        PTCLDY    41  36  80 E6        30.25S
WAUSAU         MOCLDY    46  32  58 E8        30.25R
MOSINEE        CLEAR     45  34  65 E8        30.26S
MARSHFIELD     MOCLDY    47  33  58 E8        30.24R
WISC RAPIDS    MOCLDY    50  32  50 E7        30.25R
STEVENS POINT  MOCLDY    45  33  62 E6        30.26R
WAUPACA        CLOUDY    49  37  61 CALM      30.28R
SHAWANO        CLOUDY    49  38  66 NE8       30.29R
CLINTONVILLE   CLOUDY    45  34  65 NE5       30.27R
$$

WIZ038-039-048-051-051200-
FOX VALLEY

CITY           SKY/WX    TMP DP  RH WIND       PRES   REMARKS
NWS GREEN BAY  CLOUDY    50  36  58 E7        30.28R
APPLETON       MOCLDY    50  32  50 E8        30.27R
OSHKOSH        CLOUDY    52  37  56 E8        30.26R
FOND DU LAC    CLOUDY    52  35  52 E5        30.25S
$$

WIZ022-050-052-051200-
EAST CENTRAL WISCONSIN

CITY           SKY/WX    TMP DP  RH WIND       PRES   REMARKS
STURGEON BAY   CLOUDY    45  32  61 E6        30.31R
MANITOWOC      CLOUDY    46  36  68 NE3       30.29R
SHEBOYGAN      CLOUDY    45  36  70 NE7       30.27S
$$

LMZ563-521-522-541>543-051200-
LAKESHORE

STATION/POSITION TIME  TEMP    WIND        PRES    VSBY  WAVE
                       AIR SEA DIR/SP/G                  HT/PER
                 (UTC) (F)     (DEG/KT/KT) (MB)    (MI)  (FT/S)
SHEBOYGAN LKSHOR 1100   43      10/  9/  9 1025.9R
KEWAUNEE LKSHORE 1100   42      60/  4/  7 1024.7R
NORTHPORT PIER   1100   42     320/  4/  4 1025.7S
CHAMBERS ISLAND  1100   44      10/  2/  4 1026.1S
MENOMINEE LKSHOR 1100   47      10/  9/ 10 1026.0R
$$



USA.gov is the U.S. government's official web portal to all federal, state and local government web resources and services.